Regional Weather Roundup
Issued by NWS

Home | Current Version | Previous Version | Text Only | Print | Product List | Glossary Off
Versions: 1 2 3 4 5 6 7 8 9 10 11 12 13 14 15 16 17 18 19 20 21 22 23 24 25 26 27 28 29 30 31 32 33 34 35 36 37 38 39 40 41 42 43 44 45 46 47 48 49 50

000
ASUS43 KMPX 310510
RWRMN
WEATHER ROUNDUP FOR MINNESOTA
NATIONAL WEATHER SERVICE TWIN CITIES/CHANHASSEN MN
1200 AM CDT MON AUG 31 2015


NOTE: "FAIR" INDICATES FEW OR NO CLOUDS BELOW 12,000 FEET WITH NO
SIGNIFICANT WEATHER AND/OR OBSTRUCTIONS TO VISIBILITY. N/A MEANS
CURRENT SKY AND/OR WEATHER CONDITIONS ARE NOT AVAILABLE.

MNZ060>063-068>070-310600-
   Twin Cities Metro

CITY           SKY/WX    TMP DP  RH WIND       PRES   REMARKS
TWIN CITIES    MOCLDY    69  64  84 S7        29.93S
ST PAUL        CLEAR     66  64  93 SE6       29.94S
CRYSTAL        CLEAR     70  65  84 S8        29.92R
BLAINE         CLEAR     70  68  94 S9        29.93R
LAKEVILLE      CLEAR     63  63 100 CALM      29.95R
EDEN PRAIRIE   CLEAR     68  64  87 S9        29.92S
SOUTH ST PAUL  CLEAR     67  64  90 S3        29.94S
LAKE ELMO      FAIR      64  63  94 S6        29.95S
$$
MNZ001>005-007-008-013>017-022>024-027-028-310600-
   Northwest Minnesota

CITY           SKY/WX    TMP DP  RH WIND       PRES   REMARKS
BEMIDJI        MOCLDY    69  65  86 S10       29.79F
HALLOCK        PTCLDY    73  70  88 S16       29.64F
ROSEAU         CLEAR     72  66  83 S13G18    29.70R
WARROAD        PTCLDY    72  68  88 S9G16     29.70F
THIEF RVR FALL CLEAR    N/A N/A N/A S12       29.71S
CROOKSTON      CLEAR     73  66  78 S15G23    29.70S
FOSSTON        CLEAR     70  61  73 S10       29.76S
DETROIT LAKES  PTCLDY    70  63  78 S14       29.79F
MOORHEAD       PTCLDY    72  64  78 S15       29.74S
PARK RAPIDS      N/A     70  64  81 S13       29.82F
MAHNOMEN       FAIR      71  62  75 S10       29.75F
$$
MNZ006-009>011-018-025>026-310600-
   North Central Minnesota

CITY           SKY/WX    TMP DP  RH WIND       PRES   REMARKS
BAUDETTE       MOCLDY    71  66  84 S13       29.74S
FLAG ISLAND    PTCLDY    70  66  88 S8        29.69F
INTL FALLS     PTCLDY    70  66  87 VRB3      29.78S
WASKISH        MOCLDY    72  66  83 S8        29.76S
BIG FORK       CLEAR     68  64  88 S6        29.83S
LONGVILLE      PTCLDY    68  64  88 S7        29.84S
GRAND RAPIDS     N/A     66  63  88 S12       29.86S
CRANE LAKE     PTCLDY    68  66  94 S6        29.83S
ORR            PTCLDY    66  63  88 S3        29.81S
COOK           CLEAR     70  64  83 S3        29.86R
WALKER         FAIR      70  64  83 S13       29.81S
$$
MNZ012-019>021-037-310600-
   Northeast Minnesota

CITY           SKY/WX    TMP DP  RH WIND       PRES   REMARKS
DULUTH         FAIR      67  64  90 SW9       29.90R
ELY            PTCLDY    68  63  83 SW7       29.87S
HIBBING        CLEAR     66  63  90 SE3       29.87S
EVELETH        CLEAR     64  63  94 CALM      29.90R
DULUTH HARBOR  CLEAR     70  66  88 SW8       29.88S
TWO HARBORS    PTCLDY    70  64  83 W5        29.87S
SILVER BAY     PTCLDY    70  64  83 CALM      29.87R
GRAND MARAIS     N/A     57  55  93 CALM      29.86R
G MARAIS ARPRT CLEAR     64  61  88 SW3       29.92R FOG
$$
MNZ029>031-032-039>041-046>048-054>057-064-310600-
   West Central Minnesota

CITY           SKY/WX    TMP DP  RH WIND       PRES   REMARKS
FERGUS FALLS   FAIR      68  63  83 S12       29.79S
WHEATON        CLEAR     63  59  88 SE12      29.79S
MORRIS         PTCLDY    66  63  88 SE13      29.82S
ALEXANDRIA     PTCLDY    68  63  84 S12       29.87R
ELBOW LAKE     FAIR      66  63  87 S15       29.81S
WADENA         PTCLDY    66  63  88 S12       29.83F
GLENWOOD       MOCLDY    66  63  88 S9G16     29.87S
APPLETON       CLEAR     66  61  82 S12       29.82F
BENSON         PTCLDY    66  63  88 S9        29.85S
ORTONVILLE     CLEAR     64  61  88 SE8       29.81S
MADISON        PTCLDY    63  61  94 S7        29.83S
WILLMAR        FAIR      68  66  94 S9        29.89F FOG
$$
MNZ033>034-036-042>043-049>051-058-059-310600-
   Central Minnesota

CITY           SKY/WX    TMP DP  RH WIND       PRES   REMARKS
ST CLOUD       PTCLDY    67  66  97 S9        29.90R
SAUK CENTRE    FAIR      66  65  97 S7        29.88S
PAYNESVILLE    MOCLDY    67  66  94 SE10      29.89S
AITKIN         PTCLDY    68  63  83 S6        29.87R
PINE RIVER     PTCLDY    66  66 100 S6        29.88S
BRAINERD       PTCLDY    68  66  93 S12       29.87S
STAPLES        PTCLDY    66  64  94 S9        29.85S
LONG PRAIRIE   MOCLDY    64  64 100 SE8       29.88S
LITTLE FALLS   PTCLDY    66  63  88 SE6       29.88S
LITCHFIELD     PTCLDY    68  68 100 SE5       29.91S
BUFFALO        CLEAR     67  64  89 S6        29.93R
MAPLE LAKE     CLEAR     67  66  96 S6        29.92S
$$
MNZ037-044-045-052-053-310600-
   East Central Minnesota

CITY           SKY/WX    TMP DP  RH WIND       PRES   REMARKS
PRINCETON      FAIR      70  66  88 S7        29.91S
MORA           PTCLDY    64  63  94 S5        29.92S
CAMBRIDGE      CLEAR     70  61  73 S6        29.90R
RUSH CITY      MOCLDY    66  64  93 S5        29.92R
MOOSE LAKE     PTCLDY    66  64  94 S7        29.88S
HINCKLEY       FAIR      66  64  94 S3        29.91S
CLOQUET        PTCLDY    66  64  94 S7        29.90R
MCGREGOR       PTCLDY    68  64  88 S7        29.89R
$$
MNZ071>073-080-081-089-090-097-098-310600-
   Southwest Minnesota

CITY           SKY/WX    TMP DP  RH WIND       PRES   REMARKS
MONTEVIDEO     PTCLDY    64  64 100 S10       29.87S
GRANITE FALLS  MOCLDY    65  64  97 SE9       29.88F FOG
CANBY          PTCLDY    68  62  79 S17G24    29.85S
MARSHALL       MOCLDY    66  61  82 SW22      29.87F
REDWOOD FALLS  MOCLDY    67  64  90 S9        29.89F
OLIVIA         MOCLDY    64  63  94 S8        29.89S
PIPESTONE      CLOUDY    66  64  94 S13G18    29.92S FOG
WINDOM         PTCLDY    66  64  94 S12       29.94S
WORTHINGTON    PTCLDY    64  61  88 S12       29.94S
JACKSON        PTCLDY    66  64  94 S12       29.96S FOG
TRACY          MOCLDY    67  65  92 S17G23    29.89S
SLAYTON        MOCLDY    65  65  99 S9        29.93F FOG
$$
MNZ065>067-074>077-082>085-091>093-310600-
   South Central Minnesota

CITY           SKY/WX    TMP DP  RH WIND       PRES   REMARKS
MANKATO        CLEAR     64  61  88 S7        29.95R
NEW ULM        PTCLDY    64  64 100 S8        29.92S FOG
ST JAMES       CLEAR     66  66 100 S8        29.94S
FAIRMONT       CLEAR     66  61  82 S10       29.95S
GLENCOE        CLEAR     67  66  97 S6        29.92S
FARIBAULT      CLEAR     64  63  94 S5        29.96S
OWATONNA       CLEAR     64  63  94 S9        29.97S
WASECA         CLEAR     63  61  94 S6        29.98R
ALBERT LEA     CLEAR     64  63  94 S6        29.98S FOG
$$
MNZ078>079-086>088-094>096-310600-
   Southeast Minnesota

CITY           SKY/WX    TMP DP  RH WIND       PRES   REMARKS
ROCHESTER      CLEAR     60  59  96 S7        29.99F FOG
RED WING       CLEAR     66  63  88 S3        29.95S
STANTON        CLEAR     65  62  90 S5        29.95R
DODGE CENTER   PTCLDY    64  63  94 S9        29.98S
WINONA         CLEAR     61  61 100 CALM      29.99R FOG
PRESTON        CLEAR     61  59  94 S6        30.01R FOG
$$
ABBREVIATIONS USED IN REMARKS
   TC - TEMPERATURES IN CELSIUS
  WCI - WIND CHILL INDEX
   HX - HEAT INDEX
  VSB - VISIBILITY
$$


USA.gov is the U.S. government's official web portal to all federal, state and local government web resources and services.